Turrell, AR (72384)

8:01 PM CST on December 25, 2014 (GMT -0600)
West Memphis Municipal | Change Station
CLOSE
Current Station
Airport
Location: West Memphis,
Elevation: 213 ft
Nearby Weather Stations

Elev 213 ft 35.14 °N, 90.23 °W | Updated 8 minutes ago

Clear
Clear
40 °F
Feels Like 40 °F
N
0
Wind Variable Wind from North

Today
High -- | Low -- °F
--% Chance of Precip.
Yesterday
High -- | Low -- °F
Precip. -- in
7:07 AM 4:54 PM
Waxing Crescent, 21% visible
Pressure 30.13 in
Visibility 10.0 miles
Clouds Clear
Dew Point 34 °F
Humidity 79%
Rainfall 0.00 in
Snow Depth Not available.
UV 0 out of 12
Pollen .10 out of 12
Air Quality Not available.
Flu Activity Not available.
METAR KAWM 260153Z AUTO 00000KT 10SM CLR 04/01 A3012 RMK AO2 SLP202 T00440011

More Conditions Fewer Conditions

Pressure 30.13 in
Visibility 10.0 miles
Clouds Clear
Dew Point 34 °F
Humidity 79%
Rainfall 0.00 in
Snow Depth Not available.
UV 0 out of 12
Pollen .10 out of 12
Air Quality Not available.
Flu Activity Not available.
METAR KAWM 260153Z AUTO 00000KT 10SM CLR 04/01 A3012 RMK AO2 SLP202 T00440011

More Conditions Fewer Conditions

10-Day Weather Forecast

Almanac

Astronomy

Dec. 25, 2014 Rise Set
Actual Time
Civil Twilight
Nautical Twilight
Astronomical Twilight
Moon
Length of Visible Light
Length of Day
Tomorrow will be .
, % of the Moon is Illuminated

Today's Extremes

State Highs State Lows

Community

WunderPhotos

Upload Photos

1,780,504 photos uploaded!

WunderBlogs® & News

Nearby

Air Quality

  Air Quality AQ Index Pollutant
Not available.

Snow Depth

Station Depth Elevation

Earthquake Activity

City Distance Mag. Time & Date
Minimum magnitude displayed is 2.5.

Coastal Water Temperatures

Place Temperature

Nearby Weather Stations